Lihue, HI

10:22 PM HST on October 17, 2017 (GMT -1000)
Lihue

Weather History for PHLI - January, 2014

Change the Weather History Date:

Friday, January 24, 2014

  Actual Average Record
Temperature  
Mean Temperature 68 °F 72 °F  
Max Temperature 78 °F 78 °F 84 °F (1981)
Min Temperature 58 °F 65 °F 54 °F (1969)
Degree Days  
Heating Degree Days 0 0  
Month to date heating degree days 0 0  
Since 1 July heating degree days 0 0  
Cooling Degree Days 3 7  
Month to date cooling degree days 155 168  
Year to date cooling degree days 155 168  
Growing Degree Days 18 (Base 50)    
Moisture  
Dew Point 57 °F    
Average Humidity 67    
Maximum Humidity 84    
Minimum Humidity 50    
Precipitation  
Precipitation 0.00 in 0.11 in 10.73 in (1956)
Month to date precipitation 1.09 2.94  
Year to date precipitation 1.09 2.94  
Snow  
Snow 0.00 in - - ()
Month to date snowfall 0.0  
Since 1 July snowfall 0.0  
Snow Depth 0.00 in    
Sea Level Pressure  
Sea Level Pressure 29.87 in    
Wind  
Wind Speed 9 mph (WSW)    
Max Wind Speed 20 mph    
Max Gust Speed 24 mph    
Visibility 10 miles    
Events      
T = Trace of Precipitation, MM = Missing Value Source: NWS Daily Summary

Daily Weather History Graph

Daily Weather History Graph

Search for Another Location

Airport or City:

Trip Planner

Search our weather history database for the weather conditions in past years. The results will help you decide how hot, cold, wet, or windy it might be!

Date:

Astronomy

Jan. 24, 2014 Rise Set
Actual Time 7:17 AM HST 6:21 PM HST
Civil Twilight 6:54 AM HST 6:45 PM HST
Nautical Twilight 6:27 AM HST 7:12 PM HST
Astronomical Twilight 6:00 AM HST 7:38 PM HST
Moon 1:06 AM HST (1/24) 12:41 PM HST (1/24)
Length of Visible Light 11h 50m
Length of Day
11h 03m
Last Quarter, 42% of the Moon is Illuminated
Jan 24
Last Quarter
Jan 30
New
Feb 6
First Quarter
Feb 14
Full
Feb 22
Last Quarter

Hourly Weather History & Observations

Time (HST) Temp. Dew Point Humidity Pressure Visibility Wind Dir Wind Speed Gust Speed Precip Events Conditions
12:53 AM 60.1 °F 54.0 °F 80% 29.95 in 10.0 mi West 9.2 mph - N/A   Mostly Cloudy
1:53 AM 61.0 °F 54.0 °F 78% 29.93 in 10.0 mi West 9.2 mph - N/A   Clear
2:53 AM 60.1 °F 54.0 °F 80% 29.91 in 10.0 mi WSW 6.9 mph - N/A   Clear
3:53 AM 61.0 °F 55.0 °F 81% 29.89 in 10.0 mi West 9.2 mph - N/A   Clear
4:53 AM 61.0 °F 55.0 °F 81% 29.89 in 10.0 mi West 9.2 mph - N/A   Scattered Clouds
5:53 AM 59.0 °F 54.0 °F 83% 29.89 in 10.0 mi West 9.2 mph - N/A   Scattered Clouds
6:53 AM 60.1 °F 54.0 °F 80% 29.90 in 10.0 mi West 9.2 mph - N/A   Scattered Clouds
7:53 AM 60.1 °F 54.0 °F 80% 29.91 in 10.0 mi West 9.2 mph - N/A   Clear
8:53 AM 64.0 °F 55.0 °F 73% 29.92 in 10.0 mi WNW 3.5 mph - N/A   Clear
9:53 AM 72.0 °F 54.0 °F 53% 29.93 in 10.0 mi West 4.6 mph - N/A   Clear
10:53 AM 75.0 °F 55.9 °F 51% 29.91 in 10.0 mi SW 3.5 mph - N/A   Clear
11:53 AM 75.9 °F 57.9 °F 54% 29.88 in 10.0 mi Variable 5.8 mph - N/A   Mostly Cloudy
12:53 PM 77.0 °F 57.9 °F 52% 29.84 in 10.0 mi WSW 13.8 mph - N/A   Mostly Cloudy
1:53 PM 77.0 °F 59.0 °F 54% 29.81 in 10.0 mi SW 15.0 mph - N/A   Mostly Cloudy
2:53 PM 75.0 °F 59.0 °F 57% 29.80 in 10.0 mi SW 17.3 mph 20.7 mph N/A   Mostly Cloudy
3:53 PM 75.9 °F 59.0 °F 56% 29.80 in 10.0 mi WSW 18.4 mph - N/A   Scattered Clouds
4:53 PM 73.0 °F 57.9 °F 59% 29.82 in 10.0 mi Variable 5.8 mph - N/A   Overcast
5:53 PM 72.0 °F 57.0 °F 59% 29.83 in 10.0 mi SW 10.4 mph - N/A   Overcast
6:53 PM 71.1 °F 57.9 °F 63% 29.84 in 10.0 mi SW 13.8 mph - N/A   Mostly Cloudy
7:53 PM 69.1 °F 59.0 °F 70% 29.86 in 10.0 mi SW 6.9 mph - N/A   Mostly Cloudy
8:53 PM 71.1 °F 60.1 °F 68% 29.87 in 10.0 mi SW 5.8 mph - N/A   Overcast
9:53 PM 69.1 °F 60.1 °F 73% 29.87 in 10.0 mi SW 5.8 mph - N/A   Overcast
10:53 PM 68.0 °F 60.1 °F 76% 29.86 in 10.0 mi SW 8.1 mph - N/A   Mostly Cloudy
11:53 PM 68.0 °F 59.0 °F 73% 29.86 in 10.0 mi West 4.6 mph - N/A   Overcast